Weather History for KAQP - March, 2013

Change the Weather History Date:

Tuesday, March 12, 2013

  Actual Average Record
Temperature  
Mean Temperature 24 °F -  
Max Temperature 30 °F 29 °F 66 °F (2015)
Min Temperature 17 °F 14 °F -14 °F (2009)
Degree Days  
Heating Degree Days 42    
Moisture  
Dew Point 19 °F    
Average Humidity 82    
Maximum Humidity 93    
Minimum Humidity 69    
Precipitation  
Precipitation 0.00 in - - ()
Sea Level Pressure  
Sea Level Pressure 30.07 in    
Wind  
Wind Speed 15 mph (NW)    
Max Wind Speed 25 mph    
Max Gust Speed 32 mph    
Visibility 7 miles    
Events Snow    
Averages and records for this station are not official NWS values.
T = Trace of Precipitation, MM = Missing Value Source: NWS Daily Summary

Daily Weather History Graph

Daily Weather History Graph

Search for Another Location

Airport or City:

Trip Planner

Search our weather history database for the weather conditions in past years. The results will help you decide how hot, cold, wet, or windy it might be!

Date:

Astronomy

Mar. 12, 2013 Rise Set
Actual Time 7:41 AM CDT 7:26 PM CDT
Civil Twilight 7:12 AM CDT 7:55 PM CDT
Nautical Twilight 6:38 AM CDT 8:30 PM CDT
Astronomical Twilight 6:03 AM CDT 9:04 PM CDT
Moon 7:44 AM CDT (3/12) 8:48 PM CDT (3/12)
Length of Visible Light 12h 43m
Length of Day
11h 44m
New Moon, 1% of the Moon is Illuminated
Mar 12
New Moon
Mar 19
First Quarter
Mar 27
Full
Apr 2
Last Quarter
Apr 10
New

Hourly Weather History & Observations

Time (CDT) Temp. Windchill Dew Point Humidity Pressure Visibility Wind Dir Wind Speed Gust Speed Precip Events Conditions
12:13 AM 26.6 °F 22.6 °F 23.0 °F 86% 29.86 in 10.0 mi West 3.5 mph - N/A   Overcast
12:33 AM 28.4 °F 19.1 °F 24.8 °F 86% 29.86 in 10.0 mi West 10.4 mph - N/A   Overcast
12:53 AM 28.4 °F 18.5 °F 24.8 °F 86% 29.86 in 10.0 mi West 11.5 mph - N/A   Overcast
1:13 AM 28.4 °F 18.5 °F 24.8 °F 86% 29.86 in 10.0 mi WNW 11.5 mph - N/A   Overcast
1:34 AM 30.2 °F 19.8 °F 24.8 °F 80% 29.86 in 10.0 mi NW 13.8 mph - N/A   Overcast
1:53 AM 30.2 °F 19.3 °F 24.8 °F 80% 29.86 in 10.0 mi NW 15.0 mph - N/A   Overcast
2:14 AM 30.2 °F 18.9 °F 24.8 °F 80% 29.86 in 10.0 mi NW 16.1 mph - N/A   Overcast
2:33 AM 28.4 °F 18.0 °F 24.8 °F 86% 29.87 in 10.0 mi NNW 12.7 mph - N/A Snow Light Snow
2:54 AM 28.4 °F 18.0 °F 23.0 °F 80% 29.87 in 7.0 mi NNW 12.7 mph - N/A Snow Light Snow
3:13 AM 26.6 °F 16.8 °F 24.8 °F 93% 29.88 in 7.0 mi NNW 10.4 mph - N/A   Overcast
3:33 AM 26.6 °F 15.7 °F 23.0 °F 86% 29.87 in 7.0 mi NW 12.7 mph - N/A Snow Light Snow
3:53 AM 26.6 °F 15.2 °F 21.2 °F 80% 29.88 in 7.0 mi NW 13.8 mph - N/A Snow Light Snow
4:14 AM 24.8 °F 11.9 °F 21.2 °F 86% 29.88 in 7.0 mi NNW 16.1 mph - N/A Snow Light Snow
4:33 AM 24.8 °F 12.9 °F 19.4 °F 80% 29.88 in 10.0 mi NNW 13.8 mph - N/A   Overcast
4:53 AM 23.0 °F 8.7 °F 19.4 °F 86% 29.89 in 7.0 mi NNW 18.4 mph - N/A Snow Light Snow
5:13 AM 21.2 °F 8.3 °F 19.4 °F 93% 29.90 in 10.0 mi NNW 13.8 mph - N/A   Overcast
5:33 AM 21.2 °F 7.8 °F 17.6 °F 86% 29.92 in 7.0 mi NNW 15.0 mph - N/A Snow Light Snow
5:53 AM 19.4 °F 6.0 °F 17.6 °F 93% 29.93 in 7.0 mi NNW 13.8 mph - N/A Snow Light Snow
6:13 AM 19.4 °F 5.0 °F 15.8 °F 86% 29.94 in 10.0 mi NNW 16.1 mph - N/A   Overcast
6:33 AM 17.6 °F 3.2 °F 15.8 °F 93% 29.95 in 10.0 mi NNW 15.0 mph - N/A   Overcast
6:53 AM 17.6 °F 3.7 °F 15.8 °F 93% 29.96 in 10.0 mi NNW 13.8 mph - N/A   Overcast
7:13 AM 17.6 °F 4.3 °F 14.0 °F 86% 29.96 in 7.0 mi NNW 12.7 mph - N/A   Overcast
7:53 AM 17.6 °F 3.7 °F 15.8 °F 93% 29.98 in 4.0 mi NW 13.8 mph - N/A Snow Light Snow
8:13 AM 17.6 °F 4.3 °F 15.8 °F 93% 29.99 in 5.0 mi NNW 12.7 mph - N/A Snow Light Snow
8:33 AM 17.6 °F 3.7 °F 15.8 °F 93% 30.00 in 3.0 mi NNW 13.8 mph - N/A Snow Light Snow
8:54 AM 19.4 °F 5.0 °F 15.8 °F 86% 30.01 in 4.0 mi NW 16.1 mph 19.6 mph N/A Snow Light Snow
9:13 AM 19.4 °F 5.5 °F 15.8 °F 86% 30.02 in 7.0 mi NW 15.0 mph - N/A   Overcast
9:33 AM 19.4 °F 5.0 °F 15.8 °F 86% 30.03 in 3.0 mi NNW 16.1 mph - N/A Snow Light Snow
9:54 AM 19.4 °F 3.2 °F 15.8 °F 86% 30.04 in 3.0 mi NW 20.7 mph - N/A Snow Light Snow
10:14 AM 21.2 °F 6.4 °F 15.8 °F 80% 30.06 in 5.0 mi NNW 18.4 mph 21.9 mph N/A Snow Light Snow
10:33 AM 21.2 °F 6.0 °F 15.8 °F 80% 30.07 in 5.0 mi NW 19.6 mph - N/A Snow Light Snow
10:53 AM 21.2 °F 6.0 °F 17.6 °F 86% 30.07 in 3.0 mi NW 19.6 mph - N/A Snow Light Snow
11:13 AM 21.2 °F 5.6 °F 17.6 °F 86% 30.08 in 1.5 mi NW 20.7 mph - N/A Snow Light Snow
11:33 AM 21.2 °F 6.0 °F 17.6 °F 86% 30.09 in 1.5 mi NW 19.6 mph - N/A Snow Light Snow
11:53 AM 23.0 °F 8.0 °F 17.6 °F 80% 30.09 in 1.5 mi NW 20.7 mph - N/A Snow Light Snow
12:13 PM 24.8 °F 10.0 °F 17.6 °F 74% 30.10 in 2.5 mi NW 21.9 mph 27.6 mph N/A   Haze
12:34 PM 24.8 °F 10.7 °F 19.4 °F 80% 30.11 in 1.8 mi NW 19.6 mph 25.3 mph N/A Snow Light Snow
12:53 PM 24.8 °F 9.6 °F 19.4 °F 80% 30.11 in 2.5 mi NW 23.0 mph 27.6 mph N/A   Haze
1:13 PM 24.8 °F 10.3 °F 19.4 °F 80% 30.11 in 3.0 mi NW 20.7 mph 26.5 mph N/A   Haze
1:33 PM 24.8 °F 10.0 °F 17.6 °F 74% 30.12 in 10.0 mi NW 21.9 mph 27.6 mph N/A   Clear
1:53 PM 26.6 °F 12.4 °F 17.6 °F 69% 30.12 in 10.0 mi NW 21.9 mph - N/A   Clear
2:14 PM 24.8 °F 9.6 °F 17.6 °F 74% 30.12 in 10.0 mi NW 23.0 mph 28.8 mph N/A   Clear
2:33 PM 26.6 °F 12.0 °F 17.6 °F 69% 30.12 in 7.0 mi WNW 23.0 mph - N/A   Clear
2:53 PM 26.6 °F 11.4 °F 19.4 °F 74% 30.13 in 2.5 mi NW 25.3 mph 28.8 mph N/A   Haze
3:14 PM 26.6 °F 11.4 °F 19.4 °F 74% 30.12 in 1.5 mi NW 25.3 mph 31.1 mph N/A   Haze
3:33 PM 26.6 °F 11.4 °F 19.4 °F 74% 30.13 in 2.5 mi NW 25.3 mph 32.2 mph N/A   Haze
3:53 PM 26.6 °F 11.7 °F 19.4 °F 74% 30.14 in 4.0 mi NW 24.2 mph 27.6 mph N/A   Haze
4:13 PM 26.6 °F 12.0 °F 19.4 °F 74% 30.14 in 4.0 mi NW 23.0 mph 31.1 mph N/A   Haze
4:33 PM 26.6 °F 11.7 °F 19.4 °F 74% 30.15 in 7.0 mi NW 24.2 mph 29.9 mph N/A   Scattered Clouds
4:54 PM 26.6 °F 12.0 °F 19.4 °F 74% 30.15 in 7.0 mi NW 23.0 mph 27.6 mph N/A   Scattered Clouds
5:13 PM 26.6 °F 12.4 °F 19.4 °F 74% 30.15 in 10.0 mi NW 21.9 mph 29.9 mph N/A   Clear
5:33 PM 26.6 °F 11.4 °F 19.4 °F 74% 30.16 in 7.0 mi NW 25.3 mph - N/A   Scattered Clouds
5:53 PM 26.6 °F 12.7 °F 19.4 °F 74% 30.17 in 10.0 mi NNW 20.7 mph 25.3 mph N/A   Scattered Clouds
6:14 PM 24.8 °F 10.3 °F 19.4 °F 80% 30.18 in 10.0 mi NW 20.7 mph - N/A   Clear
6:33 PM 24.8 °F 10.7 °F 17.6 °F 74% 30.18 in 10.0 mi NNW 19.6 mph - N/A   Clear
6:53 PM 23.0 °F 10.1 °F 17.6 °F 80% 30.19 in 10.0 mi NW 15.0 mph - N/A   Clear
6:59 PM 23.0 °F 9.2 °F 17.6 °F 80% 30.20 in 10.0 mi NW 17.3 mph - N/A   Clear
7:33 PM 21.2 °F 6.4 °F 17.6 °F 86% 30.21 in 10.0 mi NNW 18.4 mph 24.2 mph N/A   Clear
7:53 PM 21.2 °F 6.8 °F 15.8 °F 80% 30.23 in 10.0 mi NNW 17.3 mph - N/A   Clear
8:13 PM 21.2 °F 6.8 °F 17.6 °F 86% 30.23 in 10.0 mi NNW 17.3 mph 23.0 mph N/A   Mostly Cloudy
8:33 PM 21.2 °F 7.8 °F 17.6 °F 86% 30.24 in 10.0 mi NNW 15.0 mph - N/A   Overcast
8:54 PM 21.2 °F 6.4 °F 17.6 °F 86% 30.25 in 10.0 mi NNW 18.4 mph 26.5 mph N/A   Overcast
9:13 PM 21.2 °F 5.2 °F 15.8 °F 80% 30.25 in 7.0 mi NNW 21.9 mph 28.8 mph N/A   Overcast
9:33 PM 21.2 °F 6.4 °F 17.6 °F 86% 30.26 in 10.0 mi NNW 18.4 mph - N/A   Overcast
9:53 PM 21.2 °F 7.3 °F 17.6 °F 86% 30.26 in 10.0 mi NNW 16.1 mph - N/A   Overcast
10:14 PM 21.2 °F 6.4 °F 17.6 °F 86% 30.26 in 10.0 mi NNW 18.4 mph 25.3 mph N/A   Overcast
10:33 PM 21.2 °F 7.8 °F 17.6 °F 86% 30.27 in 10.0 mi NNW 15.0 mph - N/A   Overcast
10:54 PM 21.2 °F 6.4 °F 15.8 °F 80% 30.28 in 10.0 mi NNW 18.4 mph 24.2 mph N/A   Overcast
11:13 PM 21.2 °F 7.3 °F 15.8 °F 80% 30.28 in 10.0 mi NNW 16.1 mph 23.0 mph N/A   Overcast
11:34 PM 21.2 °F 6.4 °F 15.8 °F 80% 30.28 in 10.0 mi NNW 18.4 mph 25.3 mph N/A   Overcast
11:53 PM 21.2 °F 7.3 °F 15.8 °F 80% 30.28 in 10.0 mi NNW 16.1 mph - N/A   Overcast